Regional Weather Roundup
Issued by NWS Cleveland, OH

Home | Current Version | Previous Version | Graphics & Text | Print | Product List | Glossary On
Versions: 1 2 3 4 5 6 7 8 9 10 11 12 13 14 15 16 17 18 19 20 21 22 23 24 25 26 27 28 29 30 31 32 33 34 35 36 37 38 39 40 41 42 43 44 45 46 47 48 49 50
000
ASUS41 KCLE 281510
RWRCLE
OHIO REGIONAL WEATHER ROUNDUP
NATIONAL WEATHER SERVICE CLEVELAND, OH
1000 AM EST WED JAN 28 2015

NOTE: "FAIR" INDICATES FEW OR NO CLOUDS BELOW 12,000 FEET WITH NO
SIGNIFICANT WEATHER AND/OR OBSTRUCTIONS TO VISIBILITY.

OHZ001>008-015>018-024>027-034-035-043-044-281600-
   NORTHWEST OHIO

CITY           SKY/WX    TMP DP  RH WIND       PRES   REMARKS
DEFIANCE       MOSUNNY   13  10  88 CALM      30.37F
FINDLAY        MOSUNNY    8   6  92 S5        30.36R FOG     WCI   0
TOLEDO EXPRESS MOSUNNY   16  11  80 CALM      30.36S
TOLEDO EXEC    SUNNY     15  10  80 SW3       30.38S
LIMA           MOSUNNY   12   8  84 S6        30.35S FOG     WCI   3
$$

OHZ009>014-019>023-028>033-038-089-281600-
   NORTHEAST OHIO

CITY           SKY/WX    TMP DP  RH WIND       PRES   REMARKS
CLE-HOPKINS    MOSUNNY   13  11  92 CALM      30.39S
CLE-LAKEFRONT  SUNNY     16  13  88 SW7       30.37S WCI   6
CUY CO. ARPT   MOSUNNY   19  18  93 W7        30.36R WCI  10
LORAIN-ELYRIA  SUNNY     10   8  92 CALM      30.37R
ASHTABULA      SUNNY     12   8  84 W5        30.34R WCI   4
AKRON-CANTON   MOSUNNY   10  10 100 CALM      30.33S FOG
WOOSTER        MOSUNNY    0   0 100 CALM      30.35R FOG
MANSFIELD      SUNNY     11  11 100 SW3       30.32S
YOUNGSTOWN     MOSUNNY   11   8  88 W5        30.31R WCI   3
$$

OHZ042-051>053-060>062-070>072-077>081-281600-
  SOUTHWEST OHIO

CITY           SKY/WX    TMP DP  RH WIND       PRES   REMARKS
CINC-COVINGTON MOSUNNY   23  16  74 S5        30.37R WCI  17
CINC-LUNKEN    SUNNY     19  17  92 CALM      30.43R FOG
HAMILTON       SUNNY     20  17  88 CALM      30.41R FOG
DAYTON         MOSUNNY   16  15  96 SE3       30.36R FOG
WRIGHT-PAT AFB SUNNY     11   8  87 CALM      30.38R FOG
DAYTON GENERAL SUNNY     19  16  88 CALM      30.36R FOG
WILMINGTON     SUNNY     16  13  88 CALM      30.36R FOG
$$

OHZ036-037-039>041-045>050-054>059-063>069-073>076-082>088-281600-
  CENTRAL AND SOUTHEAST OHIO

CITY           SKY/WX    TMP DP  RH WIND       PRES   REMARKS
COLUMBUS       SUNNY     15  13  91 CALM      30.38R
OSU AIRPORT    SUNNY     12  10  92 CALM      30.38R FOG
BOLTON FIELD   SUNNY     10   9  92 CALM      30.38R FOG
RICKENBACK AFB SUNNY     12   9  87 SW3       30.40R FOG
NEWARK         SUNNY     10   8  92 CALM      30.37S FOG
MARION         SUNNY      3   1  91 SW3       30.37R FOG
LANCASTER      SUNNY     14  11  87 CALM      30.39R FOG
ZANESVILLE     SUNNY     12   9  87 CALM      30.38R FOG
NEW PHILLY     SUNNY     15  11  83 CALM      30.38S
$$



USA.gov is the U.S. government's official web portal to all federal, state and local government web resources and services.